Location: Hilton Head Island
(32.2163°N, 80.7526°W)
Time: 03:33:39
(UTC-05:00)

Injun/Solrad 3 - All Passes

Search period start: 17 February 2026 00:00
Search period end: 27 February 2026 00:00
Orbit: 873 x 983 km, 66.8° (Epoch: 16 February)

Date Brightness Start Highest point End Pass type
(mag) Time Alt. Az. Time Alt. Az. Time Alt. Az.
17 Feb - 10:58:55 10° SSW 11:04:40 66° ESE 11:10:29 10° NNE daylight
17 Feb - 12:47:58 10° W 12:51:36 17° NW 12:55:18 10° NNW daylight
17 Feb - 20:07:09 10° N 20:12:39 32° ENE 20:18:14 10° ESE visible
17 Feb - 21:53:28 10° NW 21:59:04 36° WSW 22:04:47 10° S visible
18 Feb - 09:28:25 10° ESE 09:30:00 11° ESE 09:31:34 10° E daylight
18 Feb - 11:09:50 10° SSW 11:15:39 77° WNW 11:21:33 10° NNE daylight
18 Feb - 13:02:02 10° WNW 13:03:04 10° NW 13:04:07 10° NW daylight
18 Feb - 20:17:48 10° NNW 20:23:49 50° ENE 20:29:58 10° SE visible
18 Feb - 22:05:15 10° WNW 22:09:54 22° WSW 22:14:37 10° SSW visible
19 Feb - 09:36:38 10° SSE 09:40:43 20° ESE 09:44:49 10° ENE daylight
19 Feb - 11:21:08 10° SW 11:26:43 47° WNW 11:32:24 10° NNE daylight
19 Feb - 18:45:19 10° NNE 18:47:31 12° NE 18:49:43 10° ENE visible
19 Feb - 20:28:39 10° NNW 20:34:54 78° ENE 20:41:17 10° SSE visible
19 Feb - 22:18:01 10° WNW 22:20:40 13° WSW 22:23:20 10° SW visible
20 Feb - 09:46:23 10° S 09:51:31 33° ESE 09:56:42 10° NE daylight
20 Feb - 11:32:51 10° WSW 11:37:54 30° WNW 11:43:02 10° N daylight
20 Feb - 18:54:46 10° N 18:58:58 18° NE 19:03:12 10° E visible
20 Feb - 20:39:43 10° NNW 20:45:54 68° WSW 20:52:13 10° SSE visible
21 Feb - 09:56:44 10° S 10:02:23 56° ESE 10:08:07 10° NE daylight
21 Feb - 11:45:06 10° W 11:49:11 19° NW 11:53:21 10° N daylight
21 Feb - 19:05:01 10° N 19:10:17 28° NE 19:15:37 10° ESE visible
21 Feb - 20:51:01 10° NW 20:56:50 42° WSW 21:02:45 10° S visible
22 Feb - 10:07:31 10° SSW 10:13:20 89° WNW 10:19:15 10° NNE daylight
22 Feb - 11:58:17 10° WNW 12:00:36 12° NW 12:02:57 10° NNW daylight
22 Feb - 19:15:35 10° N 19:21:30 43° ENE 19:27:30 10° SE visible
22 Feb - 21:02:39 10° NW 21:07:41 26° WSW 21:12:48 10° SSW visible
23 Feb - 08:34:57 10° SE 08:38:30 17° ESE 08:42:04 10° ENE daylight
23 Feb - 10:18:42 10° SW 10:24:23 55° WNW 10:30:10 10° NNE daylight
23 Feb - 17:44:37 10° NE 17:45:03 10° NE 17:45:29 10° NE daylight
23 Feb - 19:26:23 10° NNW 19:32:37 68° ENE 19:38:56 10° SE visible
23 Feb - 21:14:56 10° WNW 21:18:28 16° WSW 21:22:01 10° SW visible
24 Feb - 08:44:24 10° SSE 08:49:16 28° ESE 08:54:12 10° NE daylight
24 Feb - 10:30:16 10° WSW 10:35:31 35° WNW 10:40:53 10° N daylight
24 Feb - 17:52:49 10° NNE 17:56:33 16° NE 18:00:19 10° E daylight
24 Feb - 19:37:22 10° NNW 19:43:38 78° WSW 19:50:00 10° SSE visible
25 Feb - 08:54:35 10° S 09:00:07 47° ESE 09:05:43 10° NE daylight
25 Feb - 10:42:18 10° WSW 10:46:46 22° NW 10:51:20 10° N daylight
25 Feb - 18:02:54 10° N 18:07:54 25° NE 18:12:58 10° ESE daylight
25 Feb - 19:48:35 10° NW 19:54:35 49° WSW 20:00:41 10° S visible
26 Feb - 09:05:14 10° SSW 09:11:02 78° ESE 09:16:56 10° NNE daylight
26 Feb - 10:55:04 10° W 10:58:09 14° NW 11:01:17 10° NNW daylight
26 Feb - 18:13:24 10° N 18:19:09 37° ENE 18:24:59 10° SE daylight
26 Feb - 20:00:05 10° NW 20:05:27 30° WSW 20:10:55 10° SSW visible
